TimeEDT,TemperatureF,Dew PointF,Humidity,Sea Level PressureIn,VisibilityMPH,Wind Direction,Wind SpeedMPH,Gust SpeedMPH,PrecipitationIn,Events,Conditions,WindDirDegrees,DateUTC
12:54 AM,30.0,10.0,43,29.99,-9999.0,NNW,8.1,16.1,N/A,,Unknown,330,2013-03-15 04:54:00
1:54 AM,28.9,10.9,47,30.00,-9999.0,Variable,6.9,21.9,N/A,,Unknown,0,2013-03-15 05:54:00
2:54 AM,28.9,10.9,47,29.99,-9999.0,Variable,6.9,-,N/A,,Unknown,0,2013-03-15 06:54:00
3:54 AM,28.0,10.9,49,29.99,-9999.0,Variable,3.5,-,N/A,,Unknown,0,2013-03-15 07:54:00
4:54 AM,28.0,10.9,49,29.98,-9999.0,Variable,4.6,-,N/A,,Unknown,0,2013-03-15 08:54:00
5:54 AM,27.0,10.9,51,29.99,-9999.0,Calm,Calm,-,N/A,,Unknown,0,2013-03-15 09:54:00
6:54 AM,25.0,12.0,58,29.99,-9999.0,Calm,Calm,-,N/A,,Unknown,0,2013-03-15 10:54:00
7:54 AM,26.1,14.0,60,29.99,-9999.0,Calm,Calm,-,N/A,,Unknown,0,2013-03-15 11:54:00
8:54 AM,28.0,14.0,56,29.98,-9999.0,SW,5.8,-,N/A,,Unknown,220,2013-03-15 12:54:00
9:54 AM,30.9,14.0,50,29.96,-9999.0,SW,5.8,-,N/A,,Unknown,230,2013-03-15 13:54:00
10:54 AM,33.1,15.1,48,29.93,-9999.0,Variable,6.9,18.4,N/A,,Unknown,0,2013-03-15 14:54:00
11:54 AM,36.0,18.0,48,29.88,-9999.0,SW,9.2,18.4,N/A,,Unknown,230,2013-03-15 15:54:00
12:54 PM,37.0,18.0,46,29.85,-9999.0,SW,5.8,16.1,N/A,,Unknown,230,2013-03-15 16:54:00
1:54 PM,37.9,19.9,48,29.82,-9999.0,SW,9.2,17.3,N/A,,Unknown,220,2013-03-15 17:54:00
2:54 PM,39.0,21.9,50,29.79,-9999.0,SW,8.1,-,N/A,,Unknown,220,2013-03-15 18:54:00
3:54 PM,39.9,21.9,49,29.76,-9999.0,SW,9.2,17.3,N/A,,Unknown,230,2013-03-15 19:54:00
4:54 PM,41.0,24.1,51,29.75,-9999.0,Variable,6.9,-,N/A,,Unknown,0,2013-03-15 20:54:00
5:54 PM,42.1,25.0,51,29.73,-9999.0,Variable,3.5,-,N/A,,Unknown,0,2013-03-15 21:54:00
6:54 PM,44.1,25.0,47,29.75,-9999.0,Calm,Calm,-,N/A,,Unknown,0,2013-03-15 22:54:00
7:54 PM,44.1,27.0,51,29.76,-9999.0,Calm,Calm,-,N/A,,Unknown,0,2013-03-15 23:54:00
8:54 PM,43.0,27.0,53,29.78,-9999.0,Variable,4.6,-,N/A,,Unknown,0,2013-03-16 00:54:00
9:54 PM,42.1,28.0,58,29.79,-9999.0,Variable,6.9,-,N/A,,Unknown,0,2013-03-16 01:54:00
10:54 PM,39.9,27.0,60,29.80,-9999.0,NNW,5.8,-,N/A,,Unknown,340,2013-03-16 02:54:00
11:54 PM,37.9,26.1,62,29.81,-9999.0,NNW,6.9,-,N/A,,Unknown,330,2013-03-16 03:54:00